7 * 24
多渠道服务支持
IRIDIUM 114是美国铱星通信公司运营的第二代铱星系统(Iridium Next)通信卫星,于北京时间2017年1月14日发射升空,运行在近地极地低轨道,依托铱星星座全球覆盖设计,为航空、航海、军事及应急场景提供可靠的全球语音与数据通信服务。作为新一代替换卫星,它提升了系统传输速率与稳定性,支撑物联网跨区域连接和偏远地区通信保障,延续铱星系统抗干扰、全天候服务的优势,至今仍在星座中协同组网。
美国
(US)
| 数据来源 | 国际轨道数据 |
| 星历时间: | 2026-03-13T21:31:14+0800 11小时前 查看轨道信息 |
| 半长轴: | 7155.801km |
| 偏心率: | 0.000213 |
| 轨道倾角: | 86.397° |
| 近地点辐角 | 90.539° |
| 升交点赤经 | 128.451° |
| 平近点角 | 269.605° |
| 近地点: | 776.139km |
| 远地点: | 779.189km |
| 周期: | 100.403分钟 |
| 每日圈数: | 14.342189 |